Location: Misciano
(43.5000°N, 11.9500°E)
Time: 15:40:53
(UTC+00:00)

Cosmos 1707 Rocket - Pass Details

Date: 13 August 2020
Orbit: 604 x 632 km, 82.5° (Epoch: 19 September)

Event Time Altitude Azimuth Distance (km) Brightness Sun altitude
Rises 19:14:07 0° 353° (N) 2,877 7.6 -10.0°
Reaches altitude 10° 19:16:21 10° 355° (N) 1,965 6.7 -10.3°
Maximum altitude 19:20:41 75° 81° (E) 632 3.5 -11.0°
Drops below altitude 10° 19:24:59 10° 167° (SSE) 1,946 5.7 -11.7°
Enters shadow 19:25:27 - 168° (SSE) 2,133 5.9 -11.7°
